Notices

What's New in latest Release from April 7th, 2021:

- Updated Glossary, including Speed of Maximum Gust, and Total Hourly Precipitation

- Updated national and regional climate services offices contacts and prices information

- Addition of station inventory lists for 1981-2010, 1971-2000, and 1961-1990 Normals.

If you haven't already, please take our survey and provide feedback about our website: https://eccc.sondage-survey.ca/f/LanguageSelection.aspx?s=442ca660-fcf1-47c0-95a9-59707d6fd709

Hourly Data Report for April 03, 2021

CORNER BROOK
NEWFOUNDLAND
Current Station Operator: ECCC - MSC

48°56'00.000" N
57°55'00.000" W
151.80 m
8401298
71973
WKB

Download Data

Hourly Data (April 2021)
Hourly Data Report for April 3, 2021
TIME
LST
Temp Definition
°C
Dew Point Definition
°C
Rel Hum Definition
%
Precip. Amount Definition
mm

Wind Dir Definition
10's deg

Wind Spd Definition
km/h
Visibility Definition
km
Stn Press Definition
kPa
Hmdx Definition


Wind Chill Definition


Weather Definition


00:30 8.4 3.6 72 0.0 16 6   100.19     LegendNANA
01:30 8.2 3.5 72 0.0 19 6   100.23     LegendNANA
02:30 9.2 4.5 72 0.0 15 13   100.14     LegendNANA
03:30 8.7 4.3 74 0.0 15 8   100.18     LegendNANA
04:30 8.3 4.1 75 0.0 14 7   100.20     LegendNANA
05:30 8.1 4.3 77 0.0 11 11   100.16     LegendNANA
06:30 8.4 4.6 77 0.0 12 9   100.19     LegendNANA
07:30 9.3 4.8 73 0.0 12 7   100.22     LegendNANA
08:30 9.6 3.9 67 0.0 15 5   100.24     LegendNANA
09:30 10.6 2.5 57 0.0 14 9   100.25     LegendNANA
10:30 10.7 4.2 64 0.0 15 6   100.30     LegendNANA
11:30 11.0 5.1 67 0.0 16 7   100.26     LegendNANA
12:30 10.8 5.0 67 0.0 19 5   100.22     LegendNANA
13:30 10.5 5.1 70 0.0 14 9   100.25     LegendNANA
14:30 11.3 5.3 67 0.0 13 7   100.20     LegendNANA
15:30 11.4 5.4 67 0.0 14 7   100.19     LegendNANA
16:30 10.1 5.6 73 0.0 14 8   100.17     LegendNANA
17:30 9.0 5.2 77 0.0 14 6   100.20     LegendNANA
18:30 8.0 4.3 77 0.0 14 4   100.19     LegendNANA
19:30 7.3 2.1 70 0.0 12 9   100.22     LegendNANA
20:30 6.4 1.9 73 0.0 13 8   100.27     LegendNANA
21:30 6.4 2.6 76 0.0 11 9   100.20     LegendNANA
22:30 5.9 2.1 76 0.0 11 13   100.16     LegendNANA
23:30 5.7 1.9 76 0.0 9 12   100.13     LegendNANA

Notes on Data Quality.

Legend

  • E = Estimated
  • M = Missing
  • NA = Not Available*
  • [empty] = Indicates an unobserved value
Date modified: